THOR ABLESTAR DEB, 225

Orbit data source: Space-Track

THOR ABLESTAR DEB, 225 is space debris in LEO originally from a launch on Thu, 29 Jun 1961 UTC launched from the Air Force Eastern Test Range (AFETR). Debris objects in space refer to the collection of defunct objects orbiting the Earth. Examples of debris include non-operational satellites, rocket bodies, and fragments generated from explosions, collisions, or faulty payload assembly.

Loading next visibility...
Identifier
225, 1961-015BM
Orbit
LEO
Country
Flag of USUS
Related business
Manufacturer
Unknown
Mission
Spacecraft
Bus & Motor
Unknown
Mass
Unknown
Launch date (UTC)
1961-06-29 (64 years ago)
Launch vehicle
Unknown
Launch site
Air Force Eastern Test Range (AFETR)
Object type
Payload
Rocket body
Debris
Shape & HBR
Unknown
Radar Cross Section
Small (<0.1 m²)

Expand to show TLE details & history
Last TLE update: 20 hours ago

TLE from 20 hours ago
0 THOR ABLESTAR DEB
1 00225U 61015BM  25260.37202790  .00001294  00000-0  43842-3 0  9997
2 00225  66.7947 247.6832 0093486  60.4301 300.6079 14.37496517318505
Epoch: 2025-09-17T08:55Z
TLE epoch observation values (Epoch: 2025-09-17T08:55:43.21Z)
Latitude
0.00001°
Longitude
117.20424°
Altitude
735.356 km
Speed
7.505 km/s
True Right ascension
16h 30m 43s
True Declination
0° 00' 00"
Sunlit
Object was in daylight at epoch
Visualization orbit readout
Latitude
Unknown
Longitude
Unknown
Altitude
Unknown
Speed
Unknown
Apparent Right ascension
Unknown
Apparent Declination
Unknown
Sunlit
N/A
Visualization observer readout
Local Sidereal Time
21:59:23
Azimuth
Unknown
Elevation
Unknown
Doppler factor
Unknown
Orbital elements
Apogee altitude
831.92 km
Perigee altitude
698.36 km
Semi-major axis
7,143.277 km
Eccentricity
0.00935
Inclination
66.7947°
RAAN
247.6832°
Arg. of periapsis
60.4301°
True anomaly
299.68041°
Mean anomaly
300.6079°
Eccentric anomaly
300.1447°
Mean motion
3.59498 °/min
Orbital period
100.14 mins
BSTAR
0.00043842
Loading maneuver chart data...
Computing Atmospheric mass density...

Documentation

Showing up to 5 results
|